Погода в Симферополе

Хотите узнать прогноз погоды в Симферополе? Тогда Вам сюда: Погода в Симферополе

Поиск расширенной информации на нашем сайте:

Полезная информация:

Новости сайта



02.01.2020
Опубликован Долгосрочный прогноз погоды по городам России и ближнего зарубежья на январь 2020 года.
Карты: Прогноз на январь и февраль 2020 года, Сравнение прогнозируемой аномалии приземной температуры воздуха на январь 2020 года по разным моделям.




Погода в Симферополе - сегодня

Время (UTC), дата Ветер
(°,м/с) 
Видим.   Явления Облачность Т
(°С)
Тd
(°С)
f(%) Тe
(°С)
Pmin
(гПа)
dP
(гПа)
Po
(мм)
O2
(г/м3)
Тmin Tmax R s Состояние
почвы
21 22.09.20 090 (В) 10 км    ясно 
+12.3 +6.8 69 +12  1019.4  -0.3  748  287           
00 23.09.20 120 (ЮВ) 10 км    ясно 
+12 +6.7 70 +12  1018.5  -0.9  748  287           
03 23.09.20 090 (В) 10 км    1/0 верхняя 
[Ci fib]
+10.9 +6.1 72 +10  1018.2  -0.4  747  289  +10.7         
06 23.09.20 100 (В) 10 км    ясно 
+18.4 +7.2 48 +19  1017.4  -0.2  747  281  +10.6         
09 23.09.20 070 (В) 6{10}  10 км    3/0 верхняя 
[Ci fib]
+26.7 +6.7 28 +27  1015.4  -1.4  746  273           
12 23.09.20 020 (С) 10 км    3/0 верхняя 
[Ci fib]
+27.8 +9.1 31 +28  1014.1  -1.2  745  271           
15 23.09.20 260 (З) 10 км    ясно 
+22.8 +10.9 47 +25  1014.6  0.1  745  275           
18 23.09.20 160 (Ю) 10 км    ясно 
+18.2 +12 67 +23  1014.8  -0.1  745  279    +28.1       
21 23.09.20 130 (ЮВ) 10 км    5/0 верхняя 
[Ci fib]
+16.2 +10.5 69 +19  1014.5  -0.4  745  281           
00 24.09.20 150 (ЮВ) 10 км    3/0 верхняя 
[Ci fib]
+14.7 +9.1 69 +15  1014.6  745  283           
03 24.09.20 150 (ЮВ) 10 км    3/0 верхняя 
[Ci fib]
+14.7 +9.1 69 +15  1014.6  745  283           
06 24.09.20 080 (В) 10 км    ясно 
+21.3 +9.2 46 +22  1013.9  0.3  745  277  +13.9         
09 24.09.20 270 (З) 10 км    3/0 верхняя 
[Ci fib]
+25.2 +11 41 +28  1013.7  0.1  745  273           
12 24.09.20 280 (З) 10 км    10/0 верхняя 
[Ci fib]
+26 +13.2 45 +32  1012.8  -0.8  744  271           
15 24.09.20 250 (З) 10 км    10/0 верхняя 
[Ci fib]
+22.1 +12.6 55 +27  1013.1  744  275           
18 24.09.20 190 (Ю) 10 км    3/0 верхняя 
[Ci fib]
+17.6 +13.9 79 +25  1014.1  0.7  745  279    +26.7       
21 24.09.20 180 (Ю) 10 км    6/0 средняя 
[Ac trans]
+16.4 +15.1 92 +26  1014.2  745  280           
00 25.09.20 180 (Ю) 10 км    3/3 300 м 
[St]
+15.4 +15.2 99 +25  1013.4  -0.8  744  281           
03 25.09.20 140 (ЮВ) 10 км    3/3 600 м 
[Sc]
+15.5 +14.7 95 +23  1012.8  -0.6  744  280  +15.3         
06 25.09.20 170 (Ю) 10 км    1/0 средняя 
[Ac trans]
+20.4 +15.2 72 +30  1012.1  -0.3  743  276  +15         
09 25.09.20 290 (З) 10 км    1/1 1500 м 
[Cu hum]
+24.4 +13.9 52 +31  1011.8  -0.1  743  272           
12 25.09.20 270 (З) 10 км    3/3 1380 м 
[Sc diur, vesp]
+25.4 +13.6 48 +32  1010.7  -1  743  271           
15 25.09.20 270 (З) 10 км    ясно 
+22.4 +15 63 +31  1010.3  -0.6  742  273           
18 25.09.20 180 (Ю) 10 км    3/0 средняя 
[Ac trans]
+18.2 +17.2 94 +32  1010.7  0.2  742  277    +26.2       
21 25.09.20 130 (ЮВ) 10 км    5/0 средняя 
[Ac trans]
+18 +16.9 93 +31  1010.2  -0.6  742  277           
Время (UTC), дата Ветер
(°,м/с) 
Видим.   Явления Облачность Т
(°С)
Тd
(°С)
f(%) Тe
(°С)
Pmin
(гПа)
dP
(гПа)
Po
(мм)
O2
(г/м3)
Тmin Tmax R s Состояние
почвы

Для получения пояснительной информации подведите курсор к названию столбца.

ПОГОДА в Симферополе - архив

Всё, что Вы хотите узнать о погоде в Симферополе - удобно и подробно!

Выберите нужную дату (начиная с 1 января 2019* года) и нажмите кнопку "Найти".
Будут отображены архивные сводки погоды по пункту Симферополь, начиная с указанной даты.


Отображать данные в формате CSV (для использования в таблицах Excel)


Внимание! Наш архив погоды предназначен исключительно для личного некоммерческого использования в познавательных целях. Если Вам необходимы официальные справки о состоянии погоды (для производственных, юридических, коммерческих и т.п. целей), обращайтесь в органы Росгидромета.

*Примечание: данная дата относится к архиву по метеостанциям СССР (Россия, СНГ, Балтия).
Архив по метеостанциям Зарубежной Европы и Азии (кроме Китая) хранится 10 дней, по другим регионам земного шара (Китай, Африка, Америка, Австралия, Океания) - 1 день.

Симферополь - район местоположения метеостанции


Название, широта, долгота, высота метеостанции:
Симферополь 44.7°ш. 34.1°д. 181 м над ур. моря [Российская Федерация]

Дополнительная информация

В oтличие oт бoльшинства пoгoдных сайтoв мы публикуем пoдрoбную метеoинфoрмацию в детальнoм прoфессиoнальнoм фoрмате.

Характеристики температуры и влажнoсти вoздуха измеряются на высoте 2 м в тени вдали oт зданий и деревьев.
Скoрoсть ветра измеряется на высoте 10 м (на урoвне рoста челoвека скoрoсть ветра ниже в 1.5-2 раза). Если метеoстанция нахoдится в гoрoде или в лесу, тo скoрoсть ветра занижена на 2-4 м/с пo сравнению с oткрытым местoм. Скoрoсть ветра над акватoриями крупных рек и oзёр, а также на вершинах хoлмoв на 2-5 м/с выше, чем в oбычных услoвиях.
Атмoсфернoе давление в разных тoчках местнoсти мoжет значительнo oтличаться oт давления на метеoстанции, в зависимoсти oт услoвий рельефа (при пoдъёме на 10 м давление пoнижается примернo на 1 мм рт.ст.).